Regional Weather Roundup
Issued by NWS Grand Forks, ND

Home | Current Version | Previous Version | Graphics & Text | Print | Product List | Glossary On
Versions: 1 2 3 4 5 6 7 8 9 10 11 12 13 14 15 16 17 18 19 20 21 22 23 24 25 26 27 28 29 30 31 32 33 34 35 36 37 38 39 40 41 42 43 44 45 46 47 48 49 50
000
ASUS43 KFGF 251531
RWRFGF
PRAIRIE TO PINES  WEATHER ROUNDUP
NATIONAL WEATHER SERVICE EASTERN NORTH DAKOTA/GRAND FORKS ND
1000 AM CDT TUE JUL 25 2017

 **SATELLITE DATA USED TO AUGMENT SKY COVER AT AUTOMATED STATIONS**
 *****  WEATHER ACROSS EASTERN NORTH DAKOTA  *****

CITY           SKY/WX    TMP DP  RH WIND       PRES   REMARKS
GRAND FORKS    CLOUDY    71  67  87 S12       29.86R
GRAND FRKS AFB FAIR      71  67  88 S7        29.87S
DEVILS LAKE    FAIR      75  66  73 SW9       29.92R
WAHPETON ARPT  FAIR      72  64  78 S3        29.91R
$$

 ***** WEATHER ACROSS CENTRAL AND WESTERN NORTH DAKOTA  *****

CITY           SKY/WX    TMP DP  RH WIND       PRES   REMARKS
BISMARCK       FAIR      73  67  81 N12       29.92F
MINOT          FAIR      72  47  40 NW20G26   29.95R
JAMESTOWN      FAIR      71  66  84 S5        29.91S
MINOT AFB      FAIR      68  47  46 NW21      29.93R
GARRISON         N/A     74  47  38 VRB6      29.96S
WILLISTON      FAIR      72  47  40 N14       30.01R
DICKINSON      FAIR      74  45  35 N16G24    29.98F
HETTINGER      FAIR      69  57  65 NE17G23   29.95R
$$

 *****  OTHER AIRPORT OBSERVATIONS IN OUR AREA  *****

CITY           SKY/WX    TMP DP  RH WIND       PRES   REMARKS
WALHALLA       NOT AVBL
GRAFTON AIRPOR FAIR      73  70  88 S10       29.88R
VALLEY CITY AR FAIR      72  72 100 SW9       29.94R
CANDO          NOT AVBL
CAVALIER APRT  FAIR      72  70  94 SW5       29.85S
GWINNER        PTSUNNY   73  68  83 N5        29.89F
SHEYENNE NWR     N/A     74  69  82 W3        29.95S
ROLLA            N/A     64  52  63 W10       29.91R
 ***** THE ABOVE OBSERVATIONS ARE NON NWS ARE NOT QUALITY
       CONTROLLED AND MAY MIS-REPORT RAIN FOR SNOW...
$$

  *****  WEATHER ACROSS NORTHERN MINNESOTA  *****

CITY           SKY/WX    TMP DP  RH WIND       PRES   REMARKS
FLAG ISLAND    LGT RAIN  70  64  83 S7        29.83F
WARROAD        FAIR      72  66  83 SW10G17   29.86F
ROSEAU         FAIR      70  64  83 S14       29.85F
HALLOCK        FAIR      72  68  88 S10G18    29.85R
THF RVR FALLS  CLOUDY    71  66  84 SW10      29.91R
BAUDETTE       FAIR      73  66  78 S8        29.89F
WASKISH        FAIR      75  66  73 S6        29.91F
CROOKSTON      FAIR      72  66  83 S8        29.88F
STEPHEN NDAWN    N/A     70  66  88 S12         N/A
GREENBUSH NDAW   N/A     70  66  88 S10         N/A
$$
  *****  WEATHER ACROSS CENTRAL AND WEST MINNESOTA  *****

CITY           SKY/WX    TMP DP  RH WIND       PRES   REMARKS
FOSSTON        CLOUDY    72  64  78 S9        29.92R
BEMIDJI        FAIR      72  64  76 S12       29.93F
PARK RAPIDS    CLOUDY    70  64  81 S9        29.95R
ELBOW LAKE     CLOUDY    73  67  81 S9        29.90F
WADENA         CLOUDY    70  64  83 S8        29.94S
DETROIT LAKES  CLOUDY    72  64  78 S8        29.93S
MOORHEAD       FAIR      73  66  78 S6        29.90S
FERGUS FALLS   PTSUNNY   72  66  83 S7        29.90F
MORRIS MN      FAIR      77  68  73 S9        29.89S
STAPLES        CLOUDY    70  63  78 SE6       29.94S
$$
  *****  WEATHER ELSEWHERE ACROSS MINNESOTA  *****

CITY           SKY/WX    TMP DP  RH WIND       PRES   REMARKS
DULUTH         CLOUDY    67  62  84 SE10      30.03R
INTRNTL FALLS  FAIR      71  63  75 S8        29.93F
ELY            FAIR      72  61  68 S9        30.02F
CLOQUET        PTSUNNY   70  61  73 S8        30.01F
WHEATON        FAIR      73  66  78 CALM      29.89F
BRAINERD       CLOUDY    70  64  81 S13       29.96S
HIBBING          N/A     70  63  78 SE10G18   29.99F
ALEXANDRIA     CLOUDY    73  67  81 S10       29.93F
SAINT CLOUD    CLOUDY    71  65  81 S16G24    29.97R
MINNEAPOLIS    PTSUNNY   72  65  78 S17G25    29.99F
$$

  *****  WEATHER ACROSS SOUTH DAKOTA  *****

CITY           SKY/WX    TMP DP  RH WIND       PRES   REMARKS
SIOUX FALLS    FAIR      81  72  74 S15G24    29.91S
BROOKINGS      FAIR      79  70  74 S14       29.91R
WATERTOWN      FAIR      76  69  79 S10       29.89R
HURON          FAIR      82  69  64 S9        29.84F
SISSETON         N/A     74  69  85 E3        29.86F
ABERDEEN       FAIR      75  69  81 N9        29.88S
MITCHELL       FAIR      87  66  49 SW10      29.87R
PIERRE         FAIR      82  65  56 E9        29.84R
MOBRIDGE       FAIR      74  67  78 N9        29.86S
RAPID CITY     FAIR      81  58  45 N14G20    29.96S
$$

  *****  SOME WEATHER IN NEARBY STATES *****

CITY           SKY/WX    TMP DP  RH WIND       PRES   REMARKS
GLASGOW MT     FAIR      64  45  49 NW14      30.07R
GREAT FALLS MT FAIR      60  38  43 NE5       30.18S
CHEYENNE WY    FAIR      82  43  25 NW12      30.14R
SCOTTSBLUFF NE FAIR      79  59  50 VRB3      29.98R
OMAHA NE       FAIR      81  68  64 S17       30.01F
DES MOINES IA  FAIR      79  67  66 S16       30.07F
DAVENPORT IA   FAIR      72  63  73 SE7       30.17F
CHICAGO IL     FAIR      75  56  51 S13       30.20S
EAU CLAIRE WI  LGT RAIN  65  61  87 S13       30.10S
LA CROSSE WI   LGT RAIN  68  64  87 S8        30.14R
$$

  *****  SOME NATIONAL WEATHER *****

CITY           SKY/WX    TMP DP  RH WIND       PRES   REMARKS
LA GUARDIA NY  CLOUDY    65  60  84 NE12      30.08R
RALEIGH NC     PTSUNNY   86  69  56 NE9       30.08R HX  90
ATLANTA GA     PTSUNNY   81  74  79 VRB3      30.12S
NEW ORLEANS LA PTSUNNY   85  76  74 VRB7      30.15R HX  94
OKLAHOMA CITY  FAIR      85  70  60 S12       30.08S
ALBUQUERQUE NM PTSUNNY   75  61  61 S9        30.24S
SALT LAKE CITY LGT RAIN  69  62  78 SE5       30.11R
LOS ANGELES CA CLOUDY    69  65  86 W7        29.97R
BOISE ID       PTSUNNY   74  48  39 SW5       29.98R
SEATTLE WA     FAIR      65  53  65 W5        30.04R
$$

*** WEATHER ACROSS MANITOBA...SASKATCHEWAN AND ONTARIO ***
                ***ONTARIO***

CITY           SKY/WX    TMP DP  RH WIND       PRES   REMARKS
GERALDTON      PTSUNNY   73  57  56 S13G20    30.05R
THUNDER BAY    PTSUNNY   72  59  64 S8        30.06S
SIOUX LOOKOUT  PTSUNNY   70  61  73 SW10      29.91F
TORONTO        PTSUNNY   68  52  56 N8        30.19R
BIG TROUT LK   MOSUNNY   66  63  88 S18G25    29.70F
PICKLE LAKE    PTSUNNY   72  61  68 SW12G18   29.88F
DRYDEN         MOSUNNY   68  61  77 S20       29.88F
KENORA         TSTM      66  63  88 SW15G22   29.88R
$$
                *** MANITOBA***

CITY           SKY/WX    TMP DP  RH WIND       PRES   REMARKS
BRANDON        MOSUNNY   64  55  72 W18       29.85R
DAUPHIN        MOSUNNY   68  54  60 W25G33    29.74S
ISLAND LAKE    MOSUNNY   73  64  73 SW6       29.61F
PILOT MOUND      N/A     63  54  72 W6          N/A
THE PAS        MOSUNNY   64  54  68 W8        29.60R
THOMPSON       MOSUNNY   61  57  88 SW2       29.55S
WINNIPEG       PTSUNNY   68  61  77 W10       29.81R
LYNN LAKE      LGT RAIN  61  57  88 N10       29.64R
CHURCHILL      CLOUDY    52  48  87 NE14      29.63F
GILLAM         FOG       64  63  94 NE3       29.54S VSB 1
$$
                ***SASKATCHEWAN***

CITY           SKY/WX    TMP DP  RH WIND       PRES   REMARKS
ESTEVAN        MOSUNNY   64  52  63 NW23      29.96S
KINDERSLEY     MOSUNNY   63  52  67 NW9G17    30.03R
LLOYDMINSTER   PTSUNNY   61  54  77 NW9       30.01R
PRINCE ALBERT  PTSUNNY   64  59  82 NW15G24   29.81R
REGINA         PTSUNNY   63  52  67 W20G26    29.96R
YORKTON        CLOUDY    63  54  72 W16G25    29.79R
N. BATTLEFORD  SUNNY     61  55  82 NW14G23   29.97R
LA RONGE       CLOUDY    63  61  94 NW10G20   29.77R
SASKATOON      PTSUNNY   63  55  77 W25G31    29.91R
SWIFT CURRENT  SUNNY     61  48  63 W16G23    30.05R
$$
NOTE: THESE ARE AUTOMATED STATIONS WITH LIMITED QUALITY CONTROL
      "FAIR" INDICATES FEW OR NO CLOUDS BELOW 12,000 FEET WITH NO
      SIGNIFICANT WEATHER AND/OR OBSTRUCTIONS TO VISIBILITY.
      SKY/WX - SKY CONDITION AND SIGNIFICANT WEATHER.
      TMP - AIR TEMPERATURE.    DP   - DEWPOINT TEMPERATURE.
      RH  - RELATIVE HUMIDITY.  PRES - PRESSURE.
      HX  - HEAT INDEX.         WCI  - WIND CHILL INDEX.
$




USA.gov is the U.S. government's official web portal to all federal, state and local government web resources and services.